Time,TemperatureF,DewpointF,PressureIn,WindDirection,WindDirectionDegrees,WindSpeedMPH,WindSpeedGustMPH,Humidity,HourlyPrecipIn,Conditions,Clouds,dailyrainin,SoftwareType,DateUTC
2013-03-15 10:53:00,35.0,31.0,29.89,SW,232,7.0,13.0,85,-99.99,,,-99.99,,2013-03-15 14:53:00,
2013-03-15 11:02:00,36.0,31.0,29.93,West,266,3.0,12.0,82,-99.99,,,-99.99,,2013-03-15 15:02:00,
2013-03-15 11:13:00,36.0,31.0,29.93,West,266,3.0,12.0,82,-99.99,,,-99.99,,2013-03-15 15:13:00,
2013-03-15 11:23:00,37.0,31.0,29.93,SW,216,5.0,14.0,80,-99.99,,,-99.99,,2013-03-15 15:23:00,
2013-03-15 11:33:00,37.0,31.0,29.93,WSW,258,2.0,12.0,78,-99.99,,,-99.99,,2013-03-15 15:33:00,
2013-03-15 11:43:00,37.0,31.0,29.93,WSW,258,2.0,12.0,78,-99.99,,,-99.99,,2013-03-15 15:43:00,
2013-03-15 11:52:00,38.0,31.0,29.93,SW,225,5.0,11.0,76,-99.99,,,-99.99,,2013-03-15 15:52:00,
2013-03-15 12:03:00,38.0,31.0,29.92,WSW,257,2.0,10.0,76,-99.99,,,-99.99,,2013-03-15 16:03:00,
2013-03-15 12:12:00,38.0,31.0,29.92,WSW,257,2.0,10.0,76,-99.99,,,-99.99,,2013-03-15 16:12:00,
2013-03-15 12:23:00,38.0,31.0,29.92,SW,234,3.0,8.0,75,-99.99,,,-99.99,,2013-03-15 16:23:00,
2013-03-15 12:32:00,39.0,31.0,29.91,SW,225,5.0,12.0,73,-99.99,,,-99.99,,2013-03-15 16:32:00,
2013-03-15 12:42:00,39.0,31.0,29.91,SW,225,5.0,12.0,73,-99.99,,,-99.99,,2013-03-15 16:42:00,
2013-03-15 12:53:00,39.0,31.0,29.91,WNW,286,5.0,11.0,74,-99.99,,,-99.99,,2013-03-15 16:53:00,
2013-03-15 13:02:00,40.0,31.0,29.91,WSW,245,6.0,11.0,71,-99.99,,,-99.99,,2013-03-15 17:02:00,
2013-03-15 13:12:00,40.0,31.0,29.91,WSW,245,6.0,11.0,71,-99.99,,,-99.99,,2013-03-15 17:12:00,
2013-03-15 13:22:00,40.0,32.0,29.91,SSW,195,4.0,10.0,72,-99.99,,,-99.99,,2013-03-15 17:22:00,
2013-03-15 13:32:00,41.0,32.0,29.90,West,279,8.0,11.0,70,-99.99,,,-99.99,,2013-03-15 17:32:00,
2013-03-15 13:42:00,41.0,32.0,29.90,West,279,8.0,11.0,70,-99.99,,,-99.99,,2013-03-15 17:42:00,
2013-03-15 13:52:00,42.0,33.0,29.89,SW,226,2.0,9.0,69,-99.99,,,-99.99,,2013-03-15 17:52:00,
2013-03-15 14:03:00,44.0,33.0,29.88,SW,232,3.0,6.0,66,-99.99,,,-99.99,,2013-03-15 18:03:00,
2013-03-15 14:12:00,44.0,33.0,29.88,SW,232,3.0,6.0,66,-99.99,,,-99.99,,2013-03-15 18:12:00,
2013-03-15 14:22:00,46.0,33.0,29.87,SW,219,4.0,9.0,61,-99.99,,,-99.99,,2013-03-15 18:22:00,
2013-03-15 14:32:00,47.0,34.0,29.87,South,191,4.0,9.0,60,-99.99,,,-99.99,,2013-03-15 18:32:00,
2013-03-15 14:42:00,47.0,34.0,29.87,South,191,4.0,9.0,60,-99.99,,,-99.99,,2013-03-15 18:42:00,
2013-03-15 14:53:00,47.0,34.0,29.86,West,273,3.0,11.0,60,-99.99,,,-99.99,,2013-03-15 18:53:00,
2013-03-15 15:02:00,46.0,34.0,29.85,SW,230,4.0,15.0,62,-99.99,,,-99.99,,2013-03-15 19:02:00,
2013-03-15 15:12:00,46.0,34.0,29.85,SW,230,4.0,15.0,62,-99.99,,,-99.99,,2013-03-15 19:12:00,
2013-03-15 15:23:00,46.0,34.0,29.85,WNW,296,4.0,12.0,62,-99.99,,,-99.99,,2013-03-15 19:23:00,
2013-03-15 15:32:00,47.0,35.0,29.85,West,262,4.0,11.0,62,-99.99,,,-99.99,,2013-03-15 19:32:00,
2013-03-15 15:42:00,47.0,35.0,29.85,West,262,4.0,11.0,62,-99.99,,,-99.99,,2013-03-15 19:42:00,
2013-03-15 15:53:00,46.0,34.0,29.84,WNW,289,9.0,15.0,62,-99.99,,,-99.99,,2013-03-15 19:53:00,
2013-03-15 16:02:00,47.0,35.0,29.83,SW,226,4.0,11.0,62,-99.99,,,-99.99,,2013-03-15 20:02:00,
2013-03-15 16:12:00,47.0,35.0,29.83,SW,226,4.0,11.0,62,-99.99,,,-99.99,,2013-03-15 20:12:00,
2013-03-15 16:22:00,46.0,34.0,29.83,SW,216,4.0,11.0,62,-99.99,,,-99.99,,2013-03-15 20:22:00,
2013-03-15 16:32:00,47.0,35.0,29.83,West,271,6.0,11.0,63,-99.99,,,-99.99,,2013-03-15 20:32:00,
2013-03-15 16:42:00,47.0,35.0,29.83,West,271,6.0,11.0,63,-99.99,,,-99.99,,2013-03-15 20:42:00,
2013-03-15 16:52:00,47.0,35.0,29.83,SW,214,6.0,12.0,63,-99.99,,,-99.99,,2013-03-15 20:52:00,
2013-03-15 17:02:00,47.0,35.0,29.82,SW,236,5.0,11.0,63,-99.99,,,-99.99,,2013-03-15 21:02:00,
2013-03-15 17:12:00,47.0,35.0,29.82,SW,236,5.0,11.0,63,-99.99,,,-99.99,,2013-03-15 21:12:00,
2013-03-15 17:22:00,46.0,36.0,29.83,SW,236,2.0,6.0,68,-99.99,,,-99.99,,2013-03-15 21:22:00,
2013-03-15 17:33:00,46.0,37.0,29.82,SW,236,0.0,4.0,72,-99.99,,,-99.99,,2013-03-15 21:33:00,
2013-03-15 17:43:00,46.0,37.0,29.82,SW,236,0.0,4.0,72,-99.99,,,-99.99,,2013-03-15 21:43:00,
2013-03-15 17:53:00,46.0,39.0,29.82,WSW,240,2.0,6.0,76,-99.99,,,-99.99,,2013-03-15 21:53:00,
2013-03-15 18:03:00,45.0,39.0,29.83,WSW,239,3.0,6.0,78,-99.99,,,-99.99,,2013-03-15 22:03:00,
2013-03-15 18:14:00,45.0,39.0,29.83,WSW,239,3.0,6.0,78,-99.99,,,-99.99,,2013-03-15 22:14:00,
2013-03-15 18:22:00,45.0,39.0,29.83,WSW,240,1.0,4.0,80,-99.99,,,-99.99,,2013-03-15 22:22:00,
2013-03-15 18:32:00,45.0,40.0,29.82,SW,236,2.0,4.0,82,-99.99,,,-99.99,,2013-03-15 22:32:00,
2013-03-15 18:42:00,45.0,40.0,29.82,SW,236,2.0,4.0,82,-99.99,,,-99.99,,2013-03-15 22:42:00,
2013-03-15 18:53:00,44.0,39.0,29.82,SSW,210,1.0,5.0,83,-99.99,,,-99.99,,2013-03-15 22:53:00,
2013-03-15 19:03:00,44.0,40.0,29.82,SSW,210,2.0,4.0,85,-99.99,,,-99.99,,2013-03-15 23:03:00,
2013-03-15 19:12:00,44.0,40.0,29.82,SSW,210,2.0,4.0,85,-99.99,,,-99.99,,2013-03-15 23:12:00,
2013-03-15 19:22:00,44.0,40.0,29.81,SSW,210,0.0,1.0,86,-99.99,,,-99.99,,2013-03-15 23:22:00,
2013-03-15 19:32:00,43.0,39.0,29.82,SSW,210,3.0,4.0,87,-99.99,,,-99.99,,2013-03-15 23:32:00,
2013-03-15 19:42:00,43.0,39.0,29.82,SSW,210,3.0,4.0,87,-99.99,,,-99.99,,2013-03-15 23:42:00,
2013-03-15 19:53:00,43.0,40.0,29.82,SSW,210,2.0,4.0,88,-99.99,,,-99.99,,2013-03-15 23:53:00,
2013-03-15 20:03:00,43.0,40.0,29.80,SSW,210,0.0,0.0,88,-99.99,,,-99.99,,2013-03-16 00:03:00,
2013-03-15 20:12:00,43.0,40.0,29.80,SSW,210,0.0,0.0,88,-99.99,,,-99.99,,2013-03-16 00:12:00,
2013-03-15 20:22:00,43.0,40.0,29.81,SSW,210,0.0,0.0,89,-99.99,,,-99.99,,2013-03-16 00:22:00,
2013-03-15 20:32:00,43.0,40.0,29.81,South,191,0.0,4.0,90,-99.99,,,-99.99,,2013-03-16 00:32:00,
2013-03-15 20:42:00,43.0,40.0,29.81,South,191,0.0,4.0,90,-99.99,,,-99.99,,2013-03-16 00:42:00,
2013-03-15 20:52:00,43.0,40.0,29.81,South,191,1.0,4.0,90,-99.99,,,-99.99,,2013-03-16 00:52:00,
2013-03-15 21:03:00,42.0,40.0,29.80,SE,130,1.0,3.0,91,-99.99,,,-99.99,,2013-03-16 01:03:00,
2013-03-15 21:12:00,42.0,40.0,29.80,SE,130,1.0,3.0,91,-99.99,,,-99.99,,2013-03-16 01:12:00,
2013-03-15 21:22:00,42.0,40.0,29.81,SE,130,0.0,3.0,92,-99.99,,,-99.99,,2013-03-16 01:22:00,
2013-03-15 21:32:00,42.0,40.0,29.81,SE,130,1.0,3.0,92,-99.99,,,-99.99,,2013-03-16 01:32:00,
2013-03-15 21:42:00,42.0,40.0,29.81,SE,130,1.0,3.0,92,-99.99,,,-99.99,,2013-03-16 01:42:00,
2013-03-15 21:53:00,42.0,40.0,29.80,SE,130,1.0,3.0,92,-99.99,,,-99.99,,2013-03-16 01:53:00,
2013-03-15 22:02:00,42.0,40.0,29.79,SE,128,5.0,7.0,92,-99.99,,,-99.99,,2013-03-16 02:02:00,
2013-03-15 22:12:00,42.0,40.0,29.79,SE,128,5.0,7.0,92,-99.99,,,-99.99,,2013-03-16 02:12:00,